Simultaneous Nadir Overpasses (SNOs) Predictions

Prediction of SNOs between NOAA-15 and METOP-C Satellite Orbit:

Table of predicted SNOs for the next 14.0 days since TLE Epoch: 6/29/2020
Index Date (NOAA-15) Time (NOAA-15) Lat,Lon (NOAA-15) SZA (NOAA-15 ) Date (METOP-C) Time (METOP-C) Lat,Lon (METOP-C) SZA (METOP-C ) Distance(km) Time Diff (sec)
1 07/06/2020 05:18:03 -80.92, -43.68 120.03 07/06/2020 05:16:53 -80.94, -43.70 120.05 1.94 70
2 07/06/2020 06:08:38 80.93, 123.58 59.97 07/06/2020 06:07:33 80.95, 123.71 59.97 2.86 65
3 07/06/2020 06:59:06 -80.93, -69.13 120.04 07/06/2020 06:58:15 -80.93, -69.19 120.06 1.04 51
4 07/06/2020 07:49:41 80.94, 98.13 59.96 07/06/2020 07:48:55 80.94, 98.21 59.95 1.50 46
5 07/06/2020 08:40:09 -80.94, -94.59 120.04 07/06/2020 08:39:37 -80.93, -94.68 120.08 2.44 32
6 07/06/2020 09:30:44 80.95, 72.68 59.96 07/06/2020 09:30:17 80.93, 72.72 59.94 1.97 27
7 07/06/2020 10:21:11 -80.93,-119.68 120.03 07/06/2020 10:20:58 -80.94,-119.81 120.04 2.44 13
8 07/06/2020 11:11:46 80.94, 47.59 59.98 07/06/2020 11:11:38 80.94, 47.59 59.98 0.23 8
9 07/06/2020 12:02:14 -80.94,-145.13 120.03 07/06/2020 12:02:19 -80.95,-144.94 120.01 3.24 5
10 07/06/2020 12:52:49 80.95, 22.14 59.97 07/06/2020 12:53:00 80.93, 22.10 59.96 1.71 11
11 07/06/2020 13:43:17 -80.95,-170.58 120.03 07/06/2020 13:43:41 -80.94,-170.44 120.02 2.91 24
12 07/06/2020 14:33:51 80.94, -2.95 59.99 07/06/2020 14:34:21 80.94, -3.03 60.00 1.45 30
13 07/06/2020 15:24:19 -80.95, 164.33 120.02 07/06/2020 15:25:02 -80.95, 164.43 119.98 1.92 43
14 07/06/2020 16:14:54 80.95, -28.40 59.99 07/06/2020 16:15:43 80.94, -28.52 59.99 2.48 49
15 07/06/2020 17:05:22 -80.95, 138.88 120.02 07/06/2020 17:06:24 -80.94, 138.94 120.00 1.69 62
